AUA17 KMCO-LOWW

Flight info

Callsign AUA17
Flight time N/A
Altitude 39000
Route MZULO3 LENDS COACH EAAGL HAAYY AZEZU KN57E LACKS JOBOC 4160N 4250N 4340N 4330N 4320N MUDOS ROXER NOLSA MARIO SINDO PIVUS DIBER NETUP STP RAPED PIGOS EKSID NOSTA LUKIM MALUG ARALD ABTAN
Aircraft A359/H-SDE2E3GHIJ3J4J5LM1ORWXY/LB1D1

Departure

Time N/A
Airport Orlando International Airport (KMCO)

Arrival

Time 2026-04-26 00:15
Airport Vienna International Airport (LOWW)
Time Latitude Longitude Altitude Speed Heading
2026-04-25 19:55 43.04627 -27.60166 39158 ft 506 kts 88°
2026-04-25 19:56 43.04841 -27.50536 39160 ft 506 kts 88°
2026-04-25 19:56 43.05048 -27.40904 39159 ft 507 kts 88°
2026-04-25 19:57 43.05247 -27.31250 39159 ft 508 kts 88°
2026-04-25 19:57 43.05437 -27.21629 39160 ft 508 kts 88°
2026-04-25 19:58 43.05620 -27.11951 39156 ft 508 kts 88°
2026-04-25 19:58 43.05794 -27.02296 39154 ft 508 kts 88°
2026-04-25 19:59 43.05961 -26.92594 39156 ft 511 kts 88°
2026-04-25 19:59 43.06121 -26.82866 39156 ft 511 kts 88°
2026-04-25 20:00 43.06272 -26.73192 39159 ft 511 kts 88°
2026-04-25 20:00 43.06414 -26.63470 39161 ft 511 kts 88°
2026-04-25 20:01 43.06613 -26.48899 39152 ft 510 kts 88°
2026-04-25 20:01 43.06735 -26.39195 39151 ft 510 kts 88°
2026-04-25 20:02 43.06849 -26.29478 39152 ft 510 kts 88°
2026-04-25 20:02 43.06955 -26.19771 39151 ft 510 kts 88°
2026-04-25 20:03 43.07052 -26.10057 39153 ft 510 kts 88°
2026-04-25 20:03 43.07141 -26.00366 39153 ft 509 kts 88°
2026-04-25 20:04 43.07222 -25.90724 39153 ft 509 kts 88°
2026-04-25 20:04 43.07295 -25.81053 39147 ft 508 kts 88°
2026-04-25 20:05 43.07359 -25.71387 39148 ft 507 kts 88°
2026-04-25 20:05 43.07416 -25.61743 39150 ft 507 kts 88°
2026-04-25 20:06 43.07464 -25.52113 39145 ft 507 kts 88°
2026-04-25 20:06 43.07504 -25.42473 39147 ft 506 kts 89°
2026-04-25 20:07 43.07536 -25.32857 39138 ft 505 kts 89°
2026-04-25 20:07 43.07560 -25.23266 39146 ft 504 kts 89°
2026-04-25 20:08 43.07575 -25.13735 39143 ft 503 kts 89°
2026-04-25 20:08 43.07583 -25.04152 39143 ft 503 kts 89°
2026-04-25 20:09 43.07583 -24.94582 39146 ft 502 kts 89°
2026-04-25 20:09 43.07575 -24.85032 39146 ft 502 kts 89°
2026-04-25 20:10 43.07559 -24.75486 39143 ft 502 kts 89°
2026-04-25 20:10 43.07535 -24.65931 39143 ft 502 kts 90°
2026-04-25 20:11 43.07503 -24.56427 39143 ft 503 kts 90°
2026-04-25 20:11 43.07464 -24.46867 39139 ft 503 kts 90°
2026-04-25 20:12 43.07415 -24.37296 39140 ft 503 kts 90°
2026-04-25 20:12 43.07379 -24.30894 39141 ft 503 kts 90°
2026-04-25 20:13 43.07296 -24.18149 39138 ft 504 kts 90°
2026-04-25 20:13 43.07236 -24.10161 39135 ft 504 kts 90°
2026-04-25 20:14 43.07158 -24.00565 39138 ft 504 kts 90°
2026-04-25 20:14 43.07071 -23.90966 39135 ft 504 kts 91°
2026-04-25 20:15 43.06977 -23.81423 39135 ft 505 kts 91°
2026-04-25 20:15 43.06873 -23.71787 39135 ft 506 kts 91°
2026-04-25 20:16 43.06762 -23.62171 39129 ft 506 kts 91°
2026-04-25 20:16 43.06643 -23.52533 39132 ft 506 kts 91°
2026-04-25 20:17 43.06516 -23.42908 39127 ft 507 kts 91°
2026-04-25 20:17 43.06380 -23.33259 39126 ft 507 kts 91°
2026-04-25 20:18 43.06237 -23.23664 39127 ft 507 kts 91°
2026-04-25 20:18 43.06085 -23.14012 39127 ft 507 kts 92°
2026-04-25 20:19 43.05926 -23.04362 39127 ft 508 kts 92°
2026-04-25 20:19 43.05757 -22.94683 39126 ft 508 kts 92°
2026-04-25 20:20 43.05581 -22.85063 39124 ft 509 kts 92°
2026-04-25 20:20 43.05396 -22.75385 39122 ft 508 kts 92°
2026-04-25 20:21 43.05203 -22.65706 39125 ft 509 kts 92°
2026-04-25 20:21 43.05002 -22.56020 39124 ft 510 kts 92°
2026-04-25 20:22 43.04828 -22.47973 39124 ft 510 kts 92°
2026-04-25 20:22 43.04575 -22.36704 39124 ft 510 kts 93°
2026-04-25 20:23 43.04349 -22.27010 39124 ft 510 kts 93°
2026-04-25 20:23 43.04115 -22.17321 39127 ft 510 kts 93°
2026-04-25 20:24 43.03872 -22.07612 39127 ft 510 kts 93°
2026-04-25 20:24 43.03622 -21.97925 39127 ft 510 kts 93°
2026-04-25 20:25 43.03365 -21.88305 39126 ft 510 kts 93°
2026-04-25 20:25 43.03098 -21.78610 39127 ft 510 kts 93°
2026-04-25 20:26 43.02822 -21.68911 39129 ft 510 kts 93°
2026-04-25 20:26 43.02538 -21.59195 39129 ft 510 kts 94°
2026-04-25 20:27 43.02248 -21.49543 39131 ft 511 kts 94°
2026-04-25 20:27 43.02982 -21.39895 39130 ft 513 kts 72°
2026-04-25 20:28 43.04573 -21.30409 39131 ft 513 kts 85°
2026-04-25 20:28 43.04786 -21.20667 39132 ft 512 kts 93°
2026-04-25 20:29 43.04433 -21.10932 39135 ft 513 kts 95°
2026-04-25 20:29 43.04005 -21.01189 39138 ft 514 kts 95°
2026-04-25 20:30 43.03623 -20.91482 39133 ft 513 kts 94°
2026-04-25 20:30 43.03268 -20.81742 39141 ft 513 kts 94°
2026-04-25 20:31 43.02912 -20.71974 39139 ft 514 kts 94°
2026-04-25 20:31 43.02547 -20.62213 39139 ft 514 kts 95°
2026-04-25 20:32 43.02173 -20.52512 39142 ft 514 kts 95°
2026-04-25 20:32 43.01789 -20.42748 39144 ft 515 kts 95°
2026-04-25 20:33 43.01395 -20.32972 39142 ft 516 kts 95°
2026-04-25 20:33 43.01061 -20.24833 39142 ft 516 kts 95°
2026-04-25 20:34 43.00582 -20.13398 39137 ft 516 kts 95°
2026-04-25 20:34 43.00170 -20.03590 39142 ft 517 kts 95°
2026-04-25 20:35 43.00645 -19.93754 39147 ft 520 kts 85°
2026-04-25 20:35 43.01594 -19.83936 39146 ft 521 kts 83°
2026-04-25 20:36 43.02612 -19.74115 39148 ft 522 kts 84°
2026-04-25 20:36 43.03611 -19.64321 39148 ft 524 kts 84°
2026-04-25 20:37 43.04596 -19.54434 39149 ft 524 kts 84°
2026-04-25 20:37 43.05566 -19.44554 39147 ft 524 kts 84°
2026-04-25 20:38 43.06523 -19.34692 39153 ft 527 kts 84°
2026-04-25 20:38 43.07481 -19.24751 39157 ft 527 kts 84°
2026-04-25 20:39 43.08431 -19.14801 39157 ft 527 kts 84°
2026-04-25 20:39 43.09220 -19.06461 39159 ft 528 kts 84°
2026-04-25 20:40 43.10307 -18.94862 39159 ft 528 kts 84°
2026-04-25 20:40 43.11233 -18.84892 39162 ft 528 kts 84°
2026-04-25 20:41 43.12145 -18.74966 39165 ft 528 kts 84°
2026-04-25 20:41 43.13055 -18.64961 39165 ft 528 kts 84°
2026-04-25 20:42 43.13954 -18.54983 39164 ft 528 kts 84°
2026-04-25 20:42 43.14845 -18.44990 39166 ft 528 kts 84°
2026-04-25 20:43 43.15723 -18.35036 39170 ft 529 kts 84°
2026-04-25 20:43 43.16597 -18.25046 39173 ft 528 kts 84°
2026-04-25 20:44 43.17462 -18.15043 39176 ft 528 kts 84°
2026-04-25 20:44 43.18320 -18.05030 39168 ft 527 kts 84°
2026-04-25 20:45 43.19165 -17.95053 39178 ft 526 kts 84°
2026-04-25 20:45 43.19995 -17.85157 39175 ft 525 kts 85°
2026-04-25 20:46 43.20820 -17.75206 39177 ft 524 kts 85°
2026-04-25 20:46 43.21635 -17.65271 39189 ft 524 kts 85°
2026-04-25 20:47 43.22437 -17.55392 39188 ft 523 kts 85°
2026-04-25 20:47 43.23233 -17.45475 39190 ft 523 kts 85°
2026-04-25 20:48 43.24021 -17.35544 39194 ft 523 kts 86°
2026-04-25 20:48 43.24801 -17.25623 39193 ft 523 kts 86°
2026-04-25 20:49 43.25572 -17.15683 39195 ft 523 kts 86°
2026-04-25 20:49 43.26335 -17.05740 39196 ft 523 kts 86°
2026-04-25 20:50 43.27088 -16.95807 39199 ft 524 kts 86°
2026-04-25 20:50 43.27834 -16.85866 39206 ft 524 kts 86°
2026-04-25 20:51 43.28570 -16.75922 39205 ft 524 kts 86°
2026-04-25 20:51 43.29295 -16.66024 39201 ft 524 kts 86°
2026-04-25 20:52 43.29894 -16.57750 39211 ft 523 kts 86°
2026-04-25 20:52 43.30722 -16.46165 39214 ft 523 kts 86°
2026-04-25 20:53 43.31312 -16.37817 39214 ft 523 kts 86°
2026-04-25 20:53 43.32072 -16.26926 39216 ft 523 kts 86°
2026-04-25 20:54 43.32759 -16.16957 39219 ft 522 kts 86°
2026-04-25 20:54 43.33430 -16.07082 39219 ft 522 kts 86°
2026-04-25 20:55 43.34096 -15.97146 39217 ft 522 kts 86°
2026-04-25 20:55 43.34754 -15.87218 39222 ft 521 kts 86°
2026-04-25 20:56 43.35402 -15.77300 39227 ft 521 kts 86°
2026-04-25 20:56 43.36042 -15.67374 39227 ft 521 kts 87°
2026-04-25 20:57 43.36669 -15.57500 39232 ft 521 kts 87°
2026-04-25 20:57 43.37291 -15.47586 39232 ft 520 kts 87°
2026-04-25 20:58 43.37905 -15.37661 39232 ft 520 kts 87°
2026-04-25 20:58 43.38506 -15.27806 39238 ft 521 kts 87°
2026-04-25 20:59 43.39102 -15.17881 39238 ft 521 kts 87°
2026-04-25 20:59 43.39690 -15.07957 39238 ft 521 kts 87°
2026-04-25 21:00 43.40079 -15.01310 39236 ft 520 kts 87°
2026-04-25 21:01 43.41121 -14.83133 39239 ft 520 kts 87°
2026-04-25 21:01 43.41584 -14.74902 39238 ft 519 kts 87°
2026-04-25 21:02 43.42222 -14.63371 39241 ft 519 kts 87°
2026-04-25 21:02 43.42674 -14.55070 39236 ft 519 kts 87°
2026-04-25 21:03 43.43203 -14.45234 39244 ft 518 kts 87°
2026-04-25 21:03 43.43725 -14.35347 39244 ft 517 kts 87°
2026-04-25 21:04 43.44238 -14.25466 39244 ft 517 kts 87°
2026-04-25 21:04 43.44742 -14.15593 39244 ft 516 kts 87°
2026-04-25 21:05 43.45233 -14.05801 39247 ft 515 kts 87°
2026-04-25 21:05 43.45722 -13.95906 39246 ft 515 kts 87°
2026-04-25 21:06 43.46196 -13.86120 39246 ft 515 kts 87°
2026-04-25 21:06 43.46663 -13.76306 39244 ft 512 kts 87°
2026-04-25 21:07 43.47121 -13.66521 39243 ft 511 kts 87°
2026-04-25 21:07 43.47569 -13.56748 39255 ft 510 kts 87°
2026-04-25 21:08 43.48008 -13.46994 39250 ft 510 kts 88°
2026-04-25 21:08 43.48436 -13.37326 39255 ft 508 kts 88°
2026-04-25 21:09 43.49063 -13.22762 39246 ft 508 kts 88°
2026-04-25 21:09 43.49474 -13.12987 39235 ft 508 kts 88°
2026-04-25 21:10 43.49872 -13.03329 39246 ft 509 kts 88°
2026-04-25 21:10 43.49842 -12.93574 39240 ft 509 kts 93°
2026-04-25 21:11 43.49596 -12.83817 39246 ft 509 kts 93°
2026-04-25 21:11 43.49310 -12.74071 39247 ft 510 kts 93°
2026-04-25 21:12 43.49020 -12.64312 39247 ft 510 kts 93°
2026-04-25 21:12 43.48778 -12.56212 39248 ft 509 kts 93°
2026-04-25 21:13 43.48431 -12.44803 39250 ft 510 kts 93°
2026-04-25 21:13 43.48129 -12.35124 39240 ft 507 kts 93°
2026-04-25 21:14 43.47817 -12.25438 39243 ft 504 kts 93°
2026-04-25 21:14 43.47498 -12.15796 39246 ft 504 kts 93°
2026-04-25 21:15 43.47173 -12.06202 39246 ft 504 kts 93°
2026-04-25 21:15 43.46838 -11.96573 39247 ft 502 kts 94°
2026-04-25 21:16 43.46498 -11.86984 39243 ft 501 kts 94°
2026-04-25 21:16 43.46149 -11.77405 39243 ft 501 kts 94°
2026-04-25 21:17 43.45791 -11.67803 39240 ft 501 kts 94°
2026-04-25 21:17 43.45428 -11.58281 39239 ft 501 kts 94°
2026-04-25 21:18 43.45055 -11.48699 39238 ft 501 kts 94°
2026-04-25 21:18 43.44675 -11.39122 39239 ft 500 kts 94°
2026-04-25 21:19 43.44286 -11.29561 39233 ft 500 kts 94°
2026-04-25 21:19 43.43892 -11.20032 39236 ft 500 kts 94°
2026-04-25 21:20 43.43556 -11.12089 39234 ft 501 kts 94°
2026-04-25 21:20 43.43075 -11.00914 39233 ft 501 kts 94°
2026-04-25 21:21 43.42655 -10.91341 39232 ft 501 kts 94°
2026-04-25 21:21 43.42228 -10.81821 39233 ft 501 kts 94°
2026-04-25 21:22 43.41792 -10.72252 39229 ft 501 kts 94°
2026-04-25 21:22 43.41347 -10.62677 39227 ft 501 kts 94°
2026-04-25 21:23 43.40894 -10.53114 39223 ft 501 kts 95°
2026-04-25 21:23 43.40434 -10.43561 39224 ft 500 kts 95°
2026-04-25 21:24 43.39966 -10.34005 39219 ft 500 kts 95°
2026-04-25 21:24 43.39490 -10.24456 39219 ft 500 kts 95°
2026-04-25 21:25 43.39010 -10.14965 39218 ft 499 kts 95°
2026-04-25 21:25 43.38519 -10.05439 39209 ft 498 kts 95°
2026-04-25 21:26 43.38021 -9.95916 39209 ft 498 kts 95°
2026-04-25 21:26 43.37515 -9.86418 39208 ft 498 kts 95°
2026-04-25 21:27 43.37002 -9.76913 39205 ft 500 kts 95°
2026-04-25 21:27 43.36481 -9.67422 39197 ft 501 kts 95°
2026-04-25 21:28 43.35949 -9.57866 39197 ft 501 kts 95°
2026-04-25 21:28 43.35409 -9.48312 39189 ft 501 kts 95°
2026-04-25 21:29 43.34861 -9.38769 39184 ft 501 kts 95°
2026-04-25 21:29 43.34306 -9.29224 39185 ft 501 kts 95°
2026-04-25 21:30 43.33742 -9.19673 39178 ft 501 kts 95°
2026-04-25 21:30 43.33268 -9.11751 39177 ft 501 kts 95°
2026-04-25 21:31 43.32591 -9.00600 39170 ft 500 kts 95°
2026-04-25 21:31 43.32009 -8.91153 39165 ft 499 kts 95°
2026-04-25 21:32 43.31416 -8.81652 39166 ft 499 kts 95°
2026-04-25 21:32 43.30816 -8.72160 39162 ft 499 kts 95°
2026-04-25 21:33 43.30206 -8.62666 39154 ft 498 kts 95°
2026-04-25 21:33 43.29592 -8.53199 39157 ft 497 kts 95°
2026-04-25 21:34 43.28970 -8.43743 39156 ft 497 kts 95°
2026-04-25 21:34 43.28340 -8.34280 39157 ft 497 kts 95°
2026-04-25 21:35 43.27707 -8.24895 39157 ft 496 kts 95°
2026-04-25 21:35 43.27062 -8.15455 39160 ft 496 kts 95°
2026-04-25 21:36 43.26411 -8.06032 39162 ft 496 kts 95°
2026-04-25 21:36 43.25752 -7.96619 39171 ft 496 kts 96°
2026-04-25 21:37 43.25311 -7.90376 39172 ft 496 kts 96°
2026-04-25 21:37 43.24416 -7.77848 39173 ft 496 kts 96°
2026-04-25 21:38 43.23734 -7.68445 39173 ft 496 kts 96°
2026-04-25 21:38 43.23044 -7.59028 39177 ft 496 kts 95°
2026-04-25 21:39 43.22346 -7.49613 39176 ft 496 kts 96°
2026-04-25 21:39 43.21641 -7.40203 39190 ft 495 kts 96°
2026-04-25 21:40 43.21285 -7.35501 39296 ft 496 kts 96°
2026-04-25 21:40 43.20867 -7.30796 39445 ft 496 kts 98°
2026-04-25 21:40 43.20325 -7.26130 39595 ft 496 kts 99°
2026-04-25 21:40 43.19728 -7.21477 39722 ft 496 kts 99°
2026-04-25 21:41 43.19124 -7.16870 39865 ft 496 kts 99°
2026-04-25 21:41 43.18521 -7.12211 39994 ft 496 kts 99°
2026-04-25 21:41 43.17927 -7.07526 40122 ft 497 kts 99°
2026-04-25 21:41 43.17346 -7.02856 40162 ft 498 kts 99°
2026-04-25 21:42 43.16204 -6.93555 40169 ft 497 kts 99°
2026-04-25 21:42 43.15058 -6.84211 40172 ft 497 kts 99°
2026-04-25 21:43 43.13905 -6.74891 40164 ft 495 kts 99°
2026-04-25 21:43 43.12745 -6.65588 40171 ft 494 kts 99°
2026-04-25 21:44 43.11585 -6.56357 40172 ft 494 kts 99°
2026-04-25 21:45 43.09822 -6.42432 40175 ft 494 kts 99°
2026-04-25 21:45 43.08640 -6.33178 40176 ft 493 kts 99°
2026-04-25 21:46 43.07651 -6.25495 40170 ft 493 kts 99°
2026-04-25 21:46 43.06457 -6.16260 40179 ft 493 kts 99°
2026-04-25 21:47 43.05253 -6.07013 40186 ft 493 kts 99°
2026-04-25 21:47 43.04041 -5.97766 40188 ft 494 kts 99°
2026-04-25 21:48 43.02830 -5.88577 40186 ft 493 kts 99°
2026-04-25 21:48 43.01606 -5.79350 40184 ft 493 kts 99°
2026-04-25 21:49 43.00371 -5.70112 40200 ft 493 kts 99°
2026-04-25 21:49 42.99132 -5.60904 40195 ft 492 kts 99°
2026-04-25 21:50 42.97887 -5.51702 40200 ft 492 kts 99°
2026-04-25 21:50 42.96643 -5.42562 40199 ft 492 kts 99°
2026-04-25 21:51 42.95384 -5.33364 40203 ft 492 kts 99°
2026-04-25 21:51 42.94119 -5.24197 40204 ft 491 kts 99°
2026-04-25 21:52 42.92848 -5.15037 40204 ft 491 kts 99°
2026-04-25 21:52 42.91568 -5.05876 40205 ft 491 kts 99°
2026-04-25 21:53 42.90283 -4.96722 40205 ft 491 kts 100°
2026-04-25 21:53 42.88994 -4.87599 40205 ft 492 kts 100°
2026-04-25 21:54 42.87691 -4.78438 40210 ft 492 kts 100°
2026-04-25 21:54 42.86381 -4.69272 40209 ft 492 kts 100°
2026-04-25 21:55 42.85063 -4.60112 40208 ft 492 kts 100°
2026-04-25 21:55 42.83737 -4.50947 40211 ft 493 kts 101°
2026-04-25 21:56 42.82400 -4.41762 40219 ft 494 kts 101°
2026-04-25 21:56 42.81064 -4.32643 40219 ft 494 kts 101°
2026-04-25 21:57 42.79711 -4.23459 40218 ft 494 kts 101°
2026-04-25 21:57 42.78351 -4.14283 40215 ft 494 kts 101°
2026-04-25 21:58 42.76986 -4.05119 40218 ft 494 kts 101°
2026-04-25 21:58 42.75619 -3.96003 40216 ft 494 kts 101°
2026-04-25 21:59 42.74238 -3.86840 40217 ft 494 kts 101°
2026-04-25 21:59 42.72849 -3.77679 40216 ft 494 kts 101°
2026-04-25 22:00 42.70761 -3.64005 40216 ft 495 kts 101°
2026-04-25 22:00 42.69349 -3.54827 40217 ft 495 kts 101°
2026-04-25 22:01 42.67934 -3.45673 40214 ft 494 kts 101°
2026-04-25 22:01 42.66753 -3.38077 40213 ft 494 kts 101°
2026-04-25 22:02 42.65093 -3.27460 40216 ft 494 kts 102°
2026-04-25 22:02 42.63656 -3.18323 40214 ft 494 kts 102°
2026-04-25 22:03 42.62214 -3.09200 40214 ft 494 kts 102°
2026-04-25 22:03 42.60766 -3.00092 40215 ft 493 kts 102°
2026-04-25 22:04 42.59311 -2.90986 40217 ft 493 kts 102°
2026-04-25 22:04 42.57850 -2.81898 40203 ft 493 kts 102°
2026-04-25 22:05 42.56382 -2.72813 40204 ft 493 kts 102°
2026-04-25 22:05 42.54908 -2.63737 40197 ft 493 kts 102°
2026-04-25 22:06 42.53432 -2.54702 40188 ft 493 kts 102°
2026-04-25 22:06 42.51943 -2.45630 40185 ft 493 kts 102°
2026-04-25 22:07 42.50699 -2.38090 40184 ft 493 kts 102°
2026-04-25 22:07 42.48948 -2.27530 40187 ft 493 kts 102°
2026-04-25 22:08 42.47430 -2.18426 40183 ft 492 kts 102°
2026-04-25 22:08 42.45924 -2.09448 40179 ft 492 kts 102°
2026-04-25 22:09 42.44403 -2.00416 40177 ft 492 kts 102°
2026-04-25 22:09 42.42873 -1.91381 40168 ft 492 kts 102°
2026-04-25 22:10 42.41543 -1.82284 40151 ft 491 kts 98°
2026-04-25 22:10 42.40494 -1.73150 40155 ft 491 kts 98°
2026-04-25 22:11 42.39428 -1.64031 40144 ft 491 kts 98°
2026-04-25 22:11 42.38309 -1.54960 40148 ft 492 kts 99°
2026-04-25 22:12 42.37150 -1.45818 40143 ft 491 kts 99°
2026-04-25 22:12 42.36181 -1.38254 40143 ft 491 kts 99°
2026-04-25 22:13 42.34819 -1.27661 40135 ft 491 kts 99°
2026-04-25 22:13 42.33644 -1.18570 40134 ft 491 kts 99°
2026-04-25 22:14 42.32462 -1.09479 40135 ft 490 kts 100°
2026-04-25 22:14 42.31276 -1.00426 40135 ft 489 kts 100°
2026-04-25 22:15 42.30084 -0.91381 40137 ft 489 kts 100°
2026-04-25 22:16 42.28281 -0.77808 40138 ft 489 kts 100°
2026-04-25 22:16 42.27073 -0.68775 40135 ft 488 kts 101°
2026-04-25 22:17 42.25863 -0.59799 40140 ft 488 kts 101°
2026-04-25 22:17 42.24642 -0.50792 40141 ft 488 kts 101°
2026-04-25 22:18 42.23413 -0.41780 40145 ft 488 kts 101°
2026-04-25 22:18 42.22176 -0.32764 40146 ft 488 kts 101°
2026-04-25 22:19 42.21081 -0.23729 40150 ft 488 kts 95°
2026-04-25 22:19 42.20597 -0.14592 40149 ft 488 kts 94°
2026-04-25 22:20 42.20219 -0.05491 40147 ft 489 kts 94°
2026-04-25 22:20 42.19848 0.03658 40147 ft 488 kts 94°
2026-04-25 22:21 42.19461 0.12805 40141 ft 487 kts 94°
2026-04-25 22:21 42.19061 0.21915 40144 ft 486 kts 94°
2026-04-25 22:22 42.18654 0.30976 40152 ft 486 kts 94°
2026-04-25 22:22 42.18238 0.40082 40152 ft 486 kts 94°
2026-04-25 22:23 42.17814 0.49212 40157 ft 488 kts 94°
2026-04-25 22:23 42.17385 0.58288 40157 ft 488 kts 94°
2026-04-25 22:24 42.16943 0.67472 40166 ft 488 kts 94°
2026-04-25 22:24 42.16500 0.76546 40168 ft 488 kts 94°
2026-04-25 22:25 42.16046 0.85698 40165 ft 490 kts 94°
2026-04-25 22:25 42.15583 0.94874 40167 ft 491 kts 94°
2026-04-25 22:26 42.15113 1.04054 40164 ft 491 kts 95°
2026-04-25 22:26 42.14634 1.13259 40165 ft 491 kts 95°
2026-04-25 22:27 42.14152 1.22390 40161 ft 492 kts 94°
2026-04-25 22:27 42.13657 1.31608 40161 ft 493 kts 94°
2026-04-25 22:28 42.13086 1.40825 40163 ft 493 kts 96°
2026-04-25 22:28 42.12403 1.50025 40164 ft 493 kts 96°
2026-04-25 22:29 42.11717 1.59221 40163 ft 492 kts 96°
2026-04-25 22:29 42.11044 1.68387 40167 ft 492 kts 96°
2026-04-25 22:30 42.10033 1.82144 40166 ft 491 kts 96°
2026-04-25 22:30 42.09582 1.88210 40157 ft 491 kts 96°
2026-04-25 22:31 42.08661 2.00470 40151 ft 492 kts 96°
2026-04-25 22:31 42.07967 2.09582 40150 ft 492 kts 96°
2026-04-25 22:32 42.07261 2.18757 40143 ft 492 kts 96°
2026-04-25 22:32 42.06547 2.27931 40146 ft 493 kts 96°
2026-04-25 22:33 42.05947 2.35565 40138 ft 493 kts 96°
2026-04-25 22:33 42.05101 2.46235 40128 ft 493 kts 96°
2026-04-25 22:34 42.04485 2.53915 40126 ft 493 kts 96°
2026-04-25 22:34 42.03747 2.63031 40125 ft 493 kts 96°
2026-04-25 22:35 42.02998 2.72198 40127 ft 493 kts 96°
2026-04-25 22:35 42.02241 2.81370 40110 ft 493 kts 97°
2026-04-25 22:36 42.01477 2.90534 40108 ft 493 kts 97°
2026-04-25 22:36 42.00706 2.99697 40108 ft 493 kts 97°
2026-04-25 22:37 41.99928 3.08847 40106 ft 493 kts 97°
2026-04-25 22:37 41.99148 3.17942 40107 ft 492 kts 97°
2026-04-25 22:38 41.98354 3.27108 40107 ft 492 kts 97°
2026-04-25 22:38 41.97554 3.36259 40113 ft 492 kts 97°
2026-04-25 22:39 41.96752 3.45354 40116 ft 492 kts 97°
2026-04-25 22:39 41.95937 3.54502 40115 ft 492 kts 97°
2026-04-25 22:40 41.95115 3.63645 40118 ft 492 kts 97°
2026-04-25 22:40 41.94287 3.72776 40119 ft 492 kts 97°
2026-04-25 22:41 41.93451 3.81910 40100 ft 492 kts 97°
2026-04-25 22:41 41.93062 3.91010 40119 ft 489 kts 84°
2026-04-25 22:42 41.94548 3.99838 40128 ft 484 kts 68°
2026-04-25 22:42 41.97128 4.08211 40118 ft 485 kts 65°
2026-04-25 22:43 41.99868 4.16499 40118 ft 484 kts 64°
2026-04-25 22:43 42.02594 4.24787 40119 ft 484 kts 65°
2026-04-25 22:44 42.05275 4.33060 40116 ft 484 kts 65°
2026-04-25 22:44 42.08290 4.41166 40116 ft 482 kts 54°
2026-04-25 22:45 42.12497 4.48153 40112 ft 480 kts 47°
2026-04-25 22:45 42.16384 4.55556 40111 ft 488 kts 56°
2026-04-25 22:46 42.19938 4.63360 40109 ft 493 kts 58°
2026-04-25 22:46 42.23466 4.71333 40110 ft 495 kts 58°
2026-04-25 22:47 42.27007 4.79314 40107 ft 495 kts 58°
2026-04-25 22:47 42.30557 4.87281 40108 ft 495 kts 58°
2026-04-25 22:48 42.34113 4.95265 40110 ft 495 kts 58°
2026-04-25 22:48 42.37656 5.03239 40111 ft 493 kts 58°
2026-04-25 22:49 42.41159 5.11148 40111 ft 492 kts 58°
2026-04-25 22:49 42.44674 5.19105 40110 ft 492 kts 58°
2026-04-25 22:50 42.48188 5.27083 40110 ft 492 kts 58°
2026-04-25 22:50 42.51692 5.35060 40111 ft 492 kts 59°
2026-04-25 22:51 42.55185 5.43032 40107 ft 491 kts 59°
2026-04-25 22:51 42.58665 5.50997 40107 ft 490 kts 59°
2026-04-25 22:52 42.62122 5.58929 40108 ft 490 kts 59°
2026-04-25 22:52 42.65005 5.65564 40110 ft 490 kts 59°
2026-04-25 22:53 42.69051 5.74895 40112 ft 489 kts 59°
2026-04-25 22:53 42.72496 5.82865 40108 ft 488 kts 59°
2026-04-25 22:54 42.75905 5.90775 40107 ft 487 kts 59°
2026-04-25 22:54 42.79330 5.98741 40112 ft 487 kts 59°
2026-04-25 22:55 42.82759 6.06740 40110 ft 487 kts 59°
2026-04-25 22:55 42.86150 6.14670 40102 ft 486 kts 60°
2026-04-25 22:56 42.89548 6.22640 40101 ft 484 kts 60°
2026-04-25 22:56 42.92936 6.30606 40102 ft 484 kts 60°
2026-04-25 22:57 42.96291 6.38518 40102 ft 484 kts 60°
2026-04-25 22:57 42.99659 6.46481 40104 ft 484 kts 60°
2026-04-25 22:58 43.03022 6.54454 40104 ft 483 kts 60°
2026-04-25 22:58 43.06369 6.62412 40106 ft 482 kts 60°
2026-04-25 22:59 43.09708 6.70372 40106 ft 482 kts 60°
2026-04-25 22:59 43.13018 6.78286 40107 ft 481 kts 60°
2026-04-25 23:00 43.16340 6.86251 40111 ft 481 kts 60°
2026-04-25 23:00 43.19655 6.94220 40108 ft 481 kts 60°
2026-04-25 23:01 43.22972 7.02211 40101 ft 481 kts 60°
2026-04-25 23:01 43.26255 7.10148 40103 ft 481 kts 60°
2026-04-25 23:02 43.29553 7.18140 40101 ft 481 kts 60°
2026-04-25 23:02 43.32850 7.26154 40100 ft 481 kts 60°
2026-04-25 23:03 43.36125 7.34134 40103 ft 481 kts 60°
2026-04-25 23:03 43.39412 7.42168 40101 ft 481 kts 61°
2026-04-25 23:04 43.42145 7.48865 40102 ft 483 kts 60°
2026-04-25 23:04 43.45988 7.58308 40107 ft 484 kts 61°
2026-04-25 23:05 43.49297 7.66463 40116 ft 491 kts 60°
2026-04-25 23:05 43.52625 7.74686 40120 ft 497 kts 60°
2026-04-25 23:06 43.56005 7.83067 40117 ft 501 kts 60°
2026-04-25 23:06 43.59399 7.91504 40110 ft 503 kts 60°
2026-04-25 23:07 43.62787 7.99955 40110 ft 503 kts 60°
2026-04-25 23:07 43.66436 8.08107 40109 ft 501 kts 52°
2026-04-25 23:08 43.70830 8.15553 40113 ft 500 kts 48°
2026-04-25 23:08 43.75411 8.22810 40119 ft 500 kts 47°
2026-04-25 23:09 43.80025 8.30028 40119 ft 500 kts 47°
2026-04-25 23:09 43.84628 8.37271 40123 ft 500 kts 47°
2026-04-25 23:10 43.89185 8.44485 40121 ft 500 kts 47°
2026-04-25 23:10 43.93761 8.51758 40122 ft 500 kts 47°
2026-04-25 23:11 43.98347 8.59065 40121 ft 500 kts 47°
2026-04-25 23:11 44.02889 8.66321 40122 ft 500 kts 47°
2026-04-25 23:12 44.07462 8.73644 40122 ft 500 kts 47°
2026-04-25 23:12 44.12029 8.80975 40124 ft 501 kts 47°
2026-04-25 23:13 44.16594 8.88322 40124 ft 501 kts 47°
2026-04-25 23:13 44.21149 8.95672 40127 ft 501 kts 47°
2026-04-25 23:14 44.25678 9.02998 40124 ft 501 kts 47°
2026-04-25 23:14 44.30231 9.10384 40117 ft 502 kts 47°
2026-04-25 23:15 44.34787 9.17793 40117 ft 502 kts 47°
2026-04-25 23:15 44.39333 9.25205 40125 ft 502 kts 47°
2026-04-25 23:16 44.43879 9.32636 40127 ft 502 kts 47°
2026-04-25 23:16 44.48414 9.40068 40127 ft 502 kts 47°
2026-04-25 23:17 44.52947 9.47518 40130 ft 502 kts 47°
2026-04-25 23:17 44.57456 9.54948 40128 ft 502 kts 47°
2026-04-25 23:18 44.61992 9.62442 40117 ft 502 kts 47°
2026-04-25 23:18 44.66477 9.69869 40107 ft 502 kts 47°
2026-04-25 23:19 44.70993 9.77368 40098 ft 502 kts 47°
2026-04-25 23:19 44.75500 9.84873 40089 ft 502 kts 48°
2026-04-25 23:20 44.80004 9.92393 40077 ft 502 kts 47°
2026-04-25 23:20 44.83746 9.98653 40072 ft 502 kts 47°
2026-04-25 23:21 44.88243 10.06198 40059 ft 502 kts 48°
2026-04-25 23:21 44.93459 10.14973 40059 ft 502 kts 48°
2026-04-25 23:22 44.97213 10.21307 40053 ft 502 kts 48°
2026-04-25 23:23 45.03901 10.32623 40044 ft 502 kts 48°
2026-04-25 23:23 45.08371 10.40214 40052 ft 502 kts 48°
2026-04-25 23:24 45.12841 10.47823 40045 ft 502 kts 48°
2026-04-25 23:24 45.17312 10.55455 40040 ft 503 kts 48°
2026-04-25 23:25 45.21776 10.63098 40040 ft 503 kts 48°
2026-04-25 23:25 45.26207 10.70702 40043 ft 503 kts 48°
2026-04-25 23:26 45.30657 10.78362 40049 ft 502 kts 48°
2026-04-25 23:26 45.35093 10.86017 40048 ft 501 kts 48°
2026-04-25 23:27 45.39523 10.93683 40052 ft 502 kts 48°
2026-04-25 23:27 45.43957 11.01375 40061 ft 502 kts 48°
2026-04-25 23:28 45.48386 11.09081 40045 ft 503 kts 48°
2026-04-25 23:28 45.52784 11.16755 40043 ft 503 kts 48°
2026-04-25 23:29 45.57204 11.24487 40045 ft 503 kts 48°
2026-04-25 23:29 45.61631 11.32253 40057 ft 503 kts 48°
2026-04-25 23:30 45.66042 11.40014 40051 ft 502 kts 48°
2026-04-25 23:30 45.70444 11.47780 40052 ft 502 kts 48°
2026-04-25 23:31 45.74815 11.55510 40054 ft 502 kts 48°
2026-04-25 23:31 45.79210 11.63307 40059 ft 502 kts 48°
2026-04-25 23:32 45.83595 11.71109 40056 ft 502 kts 48°
2026-04-25 23:32 45.87940 11.78859 40058 ft 502 kts 48°
2026-04-25 23:33 45.92320 11.86689 40057 ft 502 kts 48°
2026-04-25 23:33 45.96692 11.94530 40066 ft 503 kts 48°
2026-04-25 23:34 46.01065 12.02397 40058 ft 503 kts 48°
2026-04-25 23:34 46.05403 12.10225 40064 ft 503 kts 49°
2026-04-25 23:35 46.09766 12.18117 40067 ft 503 kts 49°
2026-04-25 23:35 46.14126 12.26025 40068 ft 503 kts 49°
2026-04-25 23:36 46.18480 12.33945 40075 ft 503 kts 49°
2026-04-25 23:36 46.22822 12.41866 40069 ft 503 kts 49°
2026-04-25 23:37 46.27133 12.49751 40068 ft 503 kts 49°
2026-04-25 23:37 46.31468 12.57700 40074 ft 503 kts 49°
2026-04-25 23:38 46.35797 12.65665 40072 ft 504 kts 49°
2026-04-25 23:38 46.40122 12.73649 40067 ft 503 kts 49°
2026-04-25 23:39 46.44383 12.81730 40071 ft 505 kts 53°
2026-04-25 23:39 46.47656 12.90817 40073 ft 509 kts 63°
2026-04-25 23:40 46.50514 13.00145 40081 ft 509 kts 63°
2026-04-25 23:40 46.53374 13.09593 40070 ft 510 kts 63°
2026-04-25 23:41 46.56220 13.19043 40073 ft 510 kts 64°
2026-04-25 23:41 46.59060 13.28516 40072 ft 510 kts 64°
2026-04-25 23:42 46.61890 13.37989 40071 ft 510 kts 64°
2026-04-25 23:42 46.64695 13.47414 40075 ft 510 kts 64°
2026-04-25 23:43 46.67513 13.56917 40079 ft 511 kts 64°
2026-04-25 23:43 46.70324 13.66438 40072 ft 511 kts 64°
2026-04-25 23:44 46.73112 13.75912 40072 ft 511 kts 64°
2026-04-25 23:44 46.75903 13.85440 39913 ft 504 kts 64°
2026-04-25 23:44 46.77264 13.90104 39685 ft 498 kts 64°
2026-04-25 23:45 46.78618 13.94746 39459 ft 496 kts 64°
2026-04-25 23:45 46.79969 13.99387 39220 ft 497 kts 64°
2026-04-25 23:45 46.81323 14.04045 38997 ft 497 kts 64°
2026-04-25 23:45 46.82660 14.08652 38762 ft 497 kts 64°
2026-04-25 23:46 46.84009 14.13309 38481 ft 497 kts 64°
2026-04-25 23:46 46.85353 14.17963 38197 ft 497 kts 64°
2026-04-25 23:46 46.86700 14.22631 37912 ft 497 kts 64°
2026-04-25 23:46 46.88043 14.27300 37632 ft 498 kts 64°
2026-04-25 23:47 46.89384 14.31967 37343 ft 498 kts 64°
2026-04-25 23:47 46.90723 14.36640 37120 ft 497 kts 64°
2026-04-25 23:47 46.92057 14.41301 36845 ft 496 kts 64°
2026-04-25 23:47 46.93388 14.45959 36589 ft 496 kts 64°
2026-04-25 23:48 46.94718 14.50626 36336 ft 497 kts 64°
2026-04-25 23:48 46.96048 14.55297 36075 ft 498 kts 64°
2026-04-25 23:48 46.97363 14.59926 35821 ft 498 kts 64°
2026-04-25 23:48 46.98694 14.64623 35571 ft 498 kts 64°
2026-04-25 23:49 47.00021 14.69315 35316 ft 498 kts 64°
2026-04-25 23:49 47.01344 14.74002 35069 ft 498 kts 64°
2026-04-25 23:49 47.02665 14.78691 34818 ft 498 kts 64°
2026-04-25 23:49 47.03986 14.83390 34578 ft 498 kts 64°
2026-04-25 23:50 47.05305 14.88087 34348 ft 498 kts 64°
2026-04-25 23:50 47.06623 14.92791 34103 ft 498 kts 64°
2026-04-25 23:50 47.07935 14.97485 33834 ft 498 kts 64°
2026-04-25 23:50 47.09234 15.02141 33578 ft 498 kts 64°
2026-04-25 23:51 47.10544 15.06845 33297 ft 498 kts 64°
2026-04-25 23:51 47.11857 15.11566 33031 ft 498 kts 64°
2026-04-25 23:51 47.13166 15.16284 32412 ft 497 kts 64°
2026-04-25 23:51 47.14471 15.20995 31460 ft 499 kts 64°
2026-04-25 23:52 47.15778 15.25724 30514 ft 501 kts 64°
2026-04-25 23:52 47.17090 15.30480 29463 ft 502 kts 65°
2026-04-25 23:52 47.18400 15.35240 28556 ft 501 kts 65°
2026-04-25 23:52 47.19693 15.39958 27831 ft 495 kts 65°
2026-04-25 23:53 47.20974 15.44634 27134 ft 490 kts 65°
2026-04-25 23:53 47.22230 15.49226 26451 ft 487 kts 65°
2026-04-25 23:53 47.23490 15.53841 25729 ft 484 kts 65°
2026-04-25 23:53 47.24745 15.58445 25024 ft 481 kts 65°
2026-04-25 23:54 47.25983 15.62997 24343 ft 478 kts 65°
2026-04-25 23:54 47.27216 15.67534 23644 ft 475 kts 65°
2026-04-25 23:54 47.28435 15.72032 22874 ft 471 kts 65°
2026-04-25 23:54 47.29642 15.76500 22171 ft 466 kts 65°
2026-04-25 23:55 47.30835 15.80925 21471 ft 461 kts 65°
2026-04-25 23:55 47.32001 15.85251 20810 ft 457 kts 65°
2026-04-25 23:55 47.33165 15.89583 20128 ft 453 kts 65°
2026-04-25 23:55 47.34319 15.93881 19431 ft 448 kts 66°
2026-04-25 23:56 47.35511 15.98114 18755 ft 443 kts 60°
2026-04-25 23:56 47.37201 16.01829 18265 ft 431 kts 43°
2026-04-25 23:56 47.39510 16.04536 18027 ft 421 kts 25°
2026-04-25 23:56 47.42158 16.06294 17900 ft 418 kts 20°
2026-04-25 23:57 47.44604 16.08669 17736 ft 426 kts 37°
2026-04-25 23:57 47.46704 16.11777 17622 ft 428 kts 43°
2026-04-25 23:57 47.48686 16.14995 17502 ft 428 kts 44°
2026-04-25 23:57 47.50682 16.18264 17356 ft 427 kts 44°
2026-04-25 23:58 47.52677 16.21522 17240 ft 427 kts 44°
2026-04-25 23:58 47.54672 16.24775 17105 ft 426 kts 44°
2026-04-25 23:58 47.56667 16.28028 16970 ft 426 kts 44°
2026-04-25 23:58 47.58661 16.31283 16829 ft 425 kts 44°
2026-04-25 23:59 47.60650 16.34529 16703 ft 424 kts 44°
2026-04-25 23:59 47.62635 16.37773 16575 ft 423 kts 44°
2026-04-25 23:59 47.64613 16.41011 16447 ft 423 kts 44°
2026-04-25 23:59 47.66588 16.44244 16313 ft 422 kts 44°
2026-04-26 00:00 47.68499 16.47382 16171 ft 407 kts 44°
2026-04-26 00:00 47.70335 16.50409 15823 ft 381 kts 44°
2026-04-26 00:00 47.72052 16.53241 15440 ft 358 kts 44°
2026-04-26 00:00 47.73668 16.55904 15038 ft 339 kts 43°
2026-04-26 00:01 47.75230 16.58473 14389 ft 330 kts 43°
2026-04-26 00:01 47.76760 16.60988 13680 ft 325 kts 43°
2026-04-26 00:01 47.78256 16.63452 13127 ft 313 kts 43°
2026-04-26 00:01 47.79667 16.65789 12838 ft 295 kts 43°
2026-04-26 00:02 47.80996 16.67988 12378 ft 284 kts 43°
2026-04-26 00:02 47.82309 16.70157 11805 ft 280 kts 43°
2026-04-26 00:02 47.83606 16.72296 11235 ft 276 kts 43°
2026-04-26 00:02 47.84869 16.74388 10985 ft 270 kts 43°
2026-04-26 00:03 47.86121 16.76463 10844 ft 269 kts 42°
2026-04-26 00:03 47.87371 16.78532 10589 ft 267 kts 42°
2026-04-26 00:03 47.88608 16.80600 10233 ft 268 kts 44°
2026-04-26 00:03 47.89624 16.82972 9875 ft 275 kts 63°
2026-04-26 00:04 47.89972 16.85791 9478 ft 281 kts 90°
2026-04-26 00:04 47.89506 16.88620 9110 ft 282 kts 113°
2026-04-26 00:04 47.88668 16.91211 8770 ft 280 kts 117°
2026-04-26 00:04 47.87796 16.93808 8406 ft 279 kts 112°
2026-04-26 00:05 47.87432 16.96604 8019 ft 274 kts 84°
2026-04-26 00:05 47.87637 16.99385 7707 ft 269 kts 76°
2026-04-26 00:05 47.87949 17.02119 7371 ft 267 kts 75°
2026-04-26 00:05 47.88270 17.04833 7041 ft 265 kts 75°
2026-04-26 00:06 47.88886 17.07338 6700 ft 253 kts 49°
2026-04-26 00:06 47.90135 17.09012 6360 ft 236 kts 19°
2026-04-26 00:06 47.91670 17.09457 5992 ft 220 kts 348°
2026-04-26 00:06 47.93084 17.08734 5635 ft 213 kts 328°
2026-04-26 00:07 47.94283 17.07478 5268 ft 210 kts 311°
2026-04-26 00:07 47.95122 17.05743 5071 ft 209 kts 303°
2026-04-26 00:07 47.95908 17.03914 4938 ft 210 kts 303°
2026-04-26 00:07 47.96550 17.01963 4832 ft 210 kts 294°
2026-04-26 00:08 47.97116 16.99960 4683 ft 209 kts 295°
2026-04-26 00:08 47.97708 16.97989 4565 ft 208 kts 297°
2026-04-26 00:08 47.98328 16.96045 4437 ft 207 kts 297°
2026-04-26 00:08 47.98746 16.94755 4339 ft 207 kts 297°
2026-04-26 00:09 47.99376 16.92828 4226 ft 207 kts 298°
2026-04-26 00:09 48.00010 16.90902 4097 ft 206 kts 298°
2026-04-26 00:09 48.00642 16.88983 3969 ft 206 kts 298°
2026-04-26 00:09 48.01273 16.87069 3863 ft 205 kts 298°
2026-04-26 00:10 48.01895 16.85175 3735 ft 198 kts 298°
2026-04-26 00:10 48.02476 16.83395 3610 ft 187 kts 298°
2026-04-26 00:10 48.03025 16.81706 3525 ft 174 kts 299°
2026-04-26 00:10 48.03548 16.80099 3420 ft 171 kts 299°
2026-04-26 00:11 48.04073 16.78497 3304 ft 171 kts 299°
2026-04-26 00:11 48.04597 16.76896 3192 ft 170 kts 299°
2026-04-26 00:11 48.05111 16.75325 3066 ft 171 kts 298°
2026-04-26 00:11 48.05633 16.73726 2937 ft 170 kts 298°
2026-04-26 00:12 48.06132 16.72190 2746 ft 155 kts 299°
2026-04-26 00:12 48.06588 16.70793 2526 ft 145 kts 298°
2026-04-26 00:12 48.07029 16.69442 2344 ft 144 kts 298°
2026-04-26 00:12 48.07467 16.68100 2157 ft 141 kts 298°
2026-04-26 00:13 48.07874 16.66850 1974 ft 126 kts 298°
2026-04-26 00:13 48.08241 16.65725 1814 ft 117 kts 297°
2026-04-26 00:13 48.08599 16.64631 1647 ft 117 kts 296°
2026-04-26 00:13 48.08961 16.63540 1477 ft 120 kts 298°
2026-04-26 00:14 48.09327 16.62399 1350 ft 123 kts 298°
2026-04-26 00:14 48.09704 16.61263 1165 ft 125 kts 297°
2026-04-26 00:14 48.10084 16.60090 1004 ft 126 kts 294°
2026-04-26 00:14 48.10468 16.58908 831 ft 127 kts 296°
2026-04-26 00:15 48.10858 16.57714 666 ft 129 kts 295°
2026-04-26 00:15 48.11229 16.56567 627 ft 106 kts 296°
2026-04-26 00:15 48.11470 16.55824 626 ft 60 kts 296°
2026-04-26 00:15 48.11621 16.55414 629 ft 38 kts 309°
2026-04-26 00:16 48.11774 16.55181 623 ft 22 kts 321°
2026-04-26 00:16 48.11863 16.55151 626 ft 3 kts 33°
2026-04-26 00:16 48.11873 16.55195 626 ft 6 kts 94°
2026-04-26 00:16 48.11853 16.55289 618 ft 13 kts 111°
2026-04-26 00:17 48.11806 16.55443 627 ft 18 kts 115°
2026-04-26 00:17 48.11747 16.55627 625 ft 21 kts 116°
2026-04-26 00:17 48.11725 16.55770 622 ft 11 kts 52°
2026-04-26 00:17 48.11800 16.55831 625 ft 13 kts 27°
2026-04-26 00:18 48.11878 16.55889 626 ft 8 kts 28°
2026-04-26 00:18 48.11891 16.55911 629 ft 2 kts 60°
2026-04-26 00:18 48.11889 16.55924 627 ft 1 kts 100°
2026-04-26 00:18 48.11876 16.55947 629 ft 5 kts 127°
2026-04-26 00:19 48.11864 16.55974 629 ft 1 kts 125°
2026-04-26 00:19 48.11860 16.55983 625 ft 1 kts 124°
2026-04-26 00:19 48.11858 16.55986 624 ft 0 kts 124°
2026-04-26 00:20 48.11857 16.55988 624 ft 0 kts 124°